This is the latest recevied weather packets stored in our database for station/object BRIVER. If no packets are shown the sender has not sent any weather packets the latest 10 day(s).
| Time | Temp. | Humidity | Pressure | Rain* | Wind** | Luminosity | Snow |
|---|---|---|---|---|---|---|---|
| 1777574439 | 17.78° C | 43% | 1016.9 hPa | 0 mm | - | - | - |
| 1777574139 | 17.78° C | 45% | 1017 hPa | 0 mm | - | - | - |
| 1777574081 | 17.78° C | 46% | 1016.9 hPa | 0 mm | - | - | - |
| 1777573839 | 17.22° C | 46% | 1016.9 hPa | 0 mm | - | - | - |
| 1777573539 | 17.22° C | 46% | 1017 hPa | 0 mm | - | - | - |
| 1777573239 | 17.22° C | 46% | 1016.9 hPa | 0 mm | - | - | - |
| 1777572939 | 17.22° C | 45% | 1017 hPa | 0 mm | - | - | - |
| 1777572639 | 17.78° C | 48% | 1017 hPa | 0 mm | - | - | - |
| 1777572461 | 17.78° C | 44% | 1017 hPa | 0 mm | - | - | - |
| 1777572339 | 17.78° C | 48% | 1017 hPa | 0 mm | - | - | - |
| 1777572039 | 17.22° C | 48% | 1017.2 hPa | 0 mm | - | - | - |
| 1777571739 | 16.67° C | 47% | 1017.1 hPa | 0 mm | - | - | - |
| 1777571439 | 16.11° C | 51% | 1017.3 hPa | 0 mm | - | - | - |
| 1777571381 | 16.11° C | 51% | 1017.3 hPa | 0 mm | - | - | - |
| 1777571139 | 16.11° C | 47% | 1017.3 hPa | 0 mm | - | - | - |
| 1777570839 | 16.11° C | 51% | 1017.2 hPa | 0 mm | - | - | - |
| 1777570540 | 16.11° C | 50% | 1017.3 hPa | 0 mm | - | - | - |
| 1777570239 | 15.56° C | 48% | 1017.3 hPa | 0 mm | - | - | - |
| 1777569939 | 15.56° C | 48% | 1017.2 hPa | 0 mm | - | - | - |
| 1777569639 | 15.56° C | 49% | 1017.4 hPa | 0 mm | - | - | - |
| 1777569339 | 15.56° C | 48% | 1017.4 hPa | 0 mm | - | - | - |
| 1777569221 | 15.56° C | 48% | 1017.4 hPa | 0 mm | - | - | - |
| 1777569039 | 15.56° C | 50% | 1017.4 hPa | 0 mm | - | - | - |
| 1777568739 | 15° C | 52% | 1017.3 hPa | 0 mm | - | - | - |
| 1777568439 | 14.44° C | 49% | 1017.4 hPa | 0 mm | - | - | - |
* Rain latest hour (hover to see other rain measurements)
** Current wind speed in m/s (hover to see current wind gust speed)